Montrose, CO

4:15 AM MDT on July 27, 2017 (GMT -0600)
Montrose Regional

Weather History for KMTJ - November, 2013

Change the Weather History Date:

Tuesday, November 26, 2013

  Actual Average Record
Temperature  
Mean Temperature 34 °F 33 °F  
Max Temperature 44 °F 44 °F 59 °F (1998)
Min Temperature 23 °F 21 °F 8 °F (2010)
Degree Days  
Heating Degree Days 31 32  
Month to date heating degree days 657 696  
Since 1 July heating degree days 1275 1287  
Cooling Degree Days 0 0  
Month to date cooling degree days 0 0  
Year to date cooling degree days 891 643  
Moisture  
Dew Point 25 °F    
Average Humidity 74    
Maximum Humidity 92    
Minimum Humidity 55    
Precipitation  
Precipitation 0.00 in 0.03 in 0.10 in (2004)
Month to date precipitation 0.69 0.73  
Year to date precipitation 10.44 10.57  
Sea Level Pressure  
Sea Level Pressure 30.44 in    
Wind  
Wind Speed 5 mph (SE)    
Max Wind Speed 10 mph    
Max Gust Speed 12 mph    
Visibility 10 miles    
Events      
T = Trace of Precipitation, MM = Missing Value Source: NWS Daily Summary

Daily Weather History Graph

Daily Weather History Graph

Search for Another Location

Airport or City:

Trip Planner

Search our weather history database for the weather conditions in past years. The results will help you decide how hot, cold, wet, or windy it might be!

Date:

Astronomy

Nov. 26, 2013 Rise Set
Actual Time 7:05 AM MST 4:52 PM MST
Civil Twilight 6:36 AM MST 5:21 PM MST
Nautical Twilight 6:03 AM MST 5:53 PM MST
Astronomical Twilight 5:31 AM MST 6:25 PM MST
Moon 12:16 AM MST (11/26) 12:56 PM MST (11/26)
Length of Visible Light 10h 44m
Length of Day
9h 46m
Last Quarter, 40% of the Moon is Illuminated
Nov 26
Last Quarter
Dec 2
New
Dec 9
First Quarter
Dec 17
Full
Dec 25
Last Quarter

Hourly Weather History & Observations

Time (MST) Temp. Windchill Dew Point Humidity Pressure Visibility Wind Dir Wind Speed Gust Speed Precip Events Conditions
12:53 AM 28.0 °F 20.0 °F 23.0 °F 81% 30.42 in 10.0 mi SSE 8.1 mph - N/A   Clear
1:53 AM 27.0 °F 18.7 °F 23.0 °F 85% 30.43 in 10.0 mi SSE 8.1 mph - N/A   Clear
2:53 AM 27.0 °F 18.7 °F 21.9 °F 81% 30.43 in 10.0 mi SE 8.1 mph - N/A   Clear
3:53 AM 25.0 °F 16.3 °F 21.0 °F 85% 30.45 in 10.0 mi SSE 8.1 mph - N/A   Clear
4:53 AM 24.1 °F 18.2 °F 21.0 °F 88% 30.47 in 10.0 mi SE 4.6 mph - N/A   Clear
5:53 AM 25.0 °F 18.1 °F 21.0 °F 85% 30.49 in 10.0 mi SE 5.8 mph - N/A   Clear
6:53 AM 24.1 °F 16.0 °F 19.9 °F 84% 30.50 in 10.0 mi SE 6.9 mph - N/A   Clear
7:53 AM 25.0 °F 17.1 °F 21.0 °F 85% 30.52 in 10.0 mi SSE 6.9 mph - N/A   Clear
8:53 AM 28.9 °F 21.9 °F 21.9 °F 75% 30.51 in 10.0 mi SSE 6.9 mph - N/A   Clear
9:53 AM 32.0 °F - 24.1 °F 73% 30.51 in 10.0 mi Calm Calm - N/A   Clear
10:53 AM 37.0 °F - 26.1 °F 65% 30.48 in 10.0 mi Calm Calm - N/A   Clear
11:53 AM 39.0 °F - 28.9 °F 67% 30.45 in 10.0 mi Calm Calm - N/A   Clear
12:53 PM 39.9 °F 37.8 °F 28.0 °F 63% 30.42 in 10.0 mi East 3.5 mph - N/A   Clear
1:53 PM 42.1 °F 39.2 °F 28.9 °F 60% 30.40 in 10.0 mi ENE 4.6 mph - N/A   Clear
2:53 PM 42.1 °F - 28.0 °F 58% 30.39 in 10.0 mi Calm Calm - N/A   Clear
3:53 PM 43.0 °F - 28.9 °F 58% 30.40 in 10.0 mi Calm Calm - N/A   Clear
4:53 PM 41.0 °F - 27.0 °F 57% 30.40 in 10.0 mi Calm Calm - N/A   Clear
5:53 PM 37.0 °F 33.3 °F 28.9 °F 73% 30.42 in 10.0 mi South 4.6 mph - N/A   Clear
6:53 PM 33.1 °F 26.1 °F 28.9 °F 85% 30.44 in 10.0 mi SE 8.1 mph - N/A   Clear
7:53 PM 32.0 °F 24.2 °F 28.9 °F 88% 30.44 in 10.0 mi SSE 9.2 mph - N/A   Clear
8:53 PM 30.9 °F 23.5 °F 28.0 °F 89% 30.44 in 10.0 mi SE 8.1 mph - N/A   Clear
9:53 PM 30.0 °F 21.7 °F 26.1 °F 85% 30.43 in 10.0 mi SSE 9.2 mph - N/A   Clear
10:53 PM 30.0 °F 23.2 °F 26.1 °F 85% 30.42 in 10.0 mi SSE 6.9 mph - N/A   Clear
11:53 PM 28.9 °F 22.8 °F 25.0 °F 85% 30.41 in 10.0 mi SSE 5.8 mph - N/A   Clear